TVF25CB LFPO-LGKR

Flight info

Callsign TVF25CB
Flight time N/A
Altitude 33000
Route OKASI DCT OKEKO DCT MOU DCT MADIV DCT MOKIP DCT TUFTA DCT GEVEA DCT ORSUD DCT BIBAN DCT VAPUP DCT KOFER DCT RODON DCT LIMJA N732 PITAS
Aircraft B738/M-SDE2E3FGHIRWXY/LB1

Departure

Time N/A
Airport Paris-Orly Airport (LFPO)

Arrival

Time 2026-05-01 12:59
Airport Corfu Ioannis Kapodistrias International Airport (LGKR)
Time Latitude Longitude Altitude Speed Heading
2026-05-01 10:49 47.43791 3.18406 32644 ft 420 kts 156°
2026-05-01 10:49 47.41187 3.20022 32936 ft 420 kts 156°
2026-05-01 10:50 47.38470 3.21706 33206 ft 421 kts 156°
2026-05-01 10:50 47.33025 3.25081 33220 ft 427 kts 156°
2026-05-01 10:51 47.27522 3.28478 33238 ft 427 kts 156°
2026-05-01 10:51 47.22012 3.31874 33223 ft 427 kts 156°
2026-05-01 10:52 47.16560 3.35226 33234 ft 426 kts 156°
2026-05-01 10:52 47.11052 3.38606 33230 ft 428 kts 157°
2026-05-01 10:53 47.05554 3.41973 33233 ft 429 kts 157°
2026-05-01 10:53 47.00056 3.45328 33226 ft 430 kts 157°
2026-05-01 10:54 46.94555 3.48680 33230 ft 428 kts 157°
2026-05-01 10:54 46.89060 3.52022 33227 ft 431 kts 157°
2026-05-01 10:55 46.83528 3.55381 33231 ft 431 kts 158°
2026-05-01 10:55 46.78059 3.58933 33227 ft 433 kts 152°
2026-05-01 10:56 46.73343 3.64282 33224 ft 437 kts 134°
2026-05-01 10:56 46.69826 3.71568 33227 ft 442 kts 122°
2026-05-01 10:57 46.67568 3.79933 33225 ft 447 kts 109°
2026-05-01 10:57 46.66083 3.88696 33235 ft 451 kts 106°
2026-05-01 10:58 46.64688 3.97563 33238 ft 450 kts 106°
2026-05-01 10:58 46.63244 4.06355 33234 ft 449 kts 107°
2026-05-01 10:59 46.61745 4.15156 33223 ft 451 kts 107°
2026-05-01 10:59 46.60210 4.23994 33233 ft 453 kts 107°
2026-05-01 11:00 46.58662 4.32828 33229 ft 451 kts 107°
2026-05-01 11:00 46.57107 4.41630 33232 ft 452 kts 107°
2026-05-01 11:01 46.55541 4.50444 33236 ft 454 kts 107°
2026-05-01 11:01 46.53962 4.59294 33230 ft 454 kts 107°
2026-05-01 11:02 46.52375 4.68142 33233 ft 452 kts 108°
2026-05-01 11:02 46.50788 4.76937 33247 ft 453 kts 108°
2026-05-01 11:03 46.49184 4.85791 33235 ft 454 kts 107°
2026-05-01 11:03 46.47583 4.94594 33234 ft 454 kts 108°
2026-05-01 11:04 46.45977 5.03398 33228 ft 453 kts 107°
2026-05-01 11:04 46.44354 5.12223 33225 ft 454 kts 107°
2026-05-01 11:05 46.42723 5.21057 33229 ft 455 kts 107°
2026-05-01 11:05 46.41096 5.29842 33234 ft 455 kts 107°
2026-05-01 11:06 46.39456 5.38677 33234 ft 454 kts 107°
2026-05-01 11:06 46.37811 5.47508 33239 ft 455 kts 107°
2026-05-01 11:07 46.35347 5.60721 33245 ft 455 kts 106°
2026-05-01 11:07 46.33690 5.69562 33249 ft 456 kts 107°
2026-05-01 11:08 46.32029 5.78395 33256 ft 455 kts 107°
2026-05-01 11:09 46.29533 5.91533 33266 ft 456 kts 107°
2026-05-01 11:09 46.27848 6.00369 33262 ft 456 kts 107°
2026-05-01 11:10 46.25296 6.13553 33265 ft 453 kts 108°
2026-05-01 11:10 46.23156 6.22061 33268 ft 452 kts 112°
2026-05-01 11:11 46.20776 6.30398 33273 ft 453 kts 113°
2026-05-01 11:11 46.18378 6.38736 33291 ft 453 kts 113°
2026-05-01 11:12 46.15992 6.47110 33303 ft 453 kts 112°
2026-05-01 11:12 46.13614 6.55494 33317 ft 452 kts 112°
2026-05-01 11:13 46.11254 6.63845 33338 ft 453 kts 112°
2026-05-01 11:13 46.08873 6.72272 33333 ft 452 kts 112°
2026-05-01 11:14 46.06502 6.80633 33333 ft 453 kts 112°
2026-05-01 11:14 46.04118 6.89015 33329 ft 452 kts 112°
2026-05-01 11:15 46.01745 6.97326 33328 ft 454 kts 112°
2026-05-01 11:15 45.99345 7.05712 33317 ft 452 kts 112°
2026-05-01 11:16 45.96983 7.14028 33350 ft 453 kts 110°
2026-05-01 11:16 45.95200 7.22652 33372 ft 451 kts 102°
2026-05-01 11:17 45.94086 7.31123 33371 ft 452 kts 99°
2026-05-01 11:17 45.93084 7.39994 33370 ft 450 kts 99°
2026-05-01 11:18 45.91528 7.48674 33372 ft 453 kts 109°
2026-05-01 11:18 45.88955 7.56922 33373 ft 453 kts 114°
2026-05-01 11:19 45.86226 7.65077 33378 ft 458 kts 114°
2026-05-01 11:19 45.83513 7.73313 33379 ft 458 kts 114°
2026-05-01 11:20 45.80810 7.81598 33377 ft 459 kts 114°
2026-05-01 11:20 45.78126 7.89845 33379 ft 460 kts 114°
2026-05-01 11:21 45.75437 7.98103 33387 ft 460 kts 114°
2026-05-01 11:21 45.72728 8.06399 33387 ft 460 kts 113°
2026-05-01 11:22 45.70037 8.14620 33377 ft 459 kts 113°
2026-05-01 11:22 45.67316 8.22905 33363 ft 459 kts 113°
2026-05-01 11:23 45.64613 8.31108 33364 ft 460 kts 113°
2026-05-01 11:23 45.61880 8.39370 33362 ft 460 kts 113°
2026-05-01 11:24 45.59153 8.47601 33360 ft 460 kts 112°
2026-05-01 11:25 45.55052 8.59915 33369 ft 460 kts 112°
2026-05-01 11:25 45.50945 8.72195 33363 ft 459 kts 113°
2026-05-01 11:26 45.46820 8.84469 33357 ft 459 kts 113°
2026-05-01 11:27 45.44062 8.92648 33356 ft 458 kts 112°
2026-05-01 11:27 45.41310 9.00783 33352 ft 460 kts 112°
2026-05-01 11:28 45.38540 9.08943 33349 ft 457 kts 112°
2026-05-01 11:28 45.35783 9.17046 33354 ft 459 kts 112°
2026-05-01 11:29 45.31611 9.29248 33355 ft 457 kts 112°
2026-05-01 11:30 45.27438 9.41402 33349 ft 458 kts 112°
2026-05-01 11:30 45.24668 9.49445 33353 ft 457 kts 111°
2026-05-01 11:31 45.21876 9.57526 33353 ft 457 kts 111°
2026-05-01 11:31 45.19094 9.65549 33352 ft 456 kts 112°
2026-05-01 11:32 45.16297 9.73595 33353 ft 455 kts 112°
2026-05-01 11:32 45.13483 9.81661 33356 ft 456 kts 112°
2026-05-01 11:33 45.10682 9.89662 33358 ft 455 kts 111°
2026-05-01 11:33 45.07888 9.97618 33359 ft 454 kts 111°
2026-05-01 11:34 45.05071 10.05625 33364 ft 455 kts 111°
2026-05-01 11:34 45.02259 10.13590 33364 ft 455 kts 111°
2026-05-01 11:35 44.99442 10.21551 33363 ft 454 kts 111°
2026-05-01 11:35 44.96641 10.29435 33366 ft 454 kts 111°
2026-05-01 11:36 44.93807 10.37397 33367 ft 453 kts 111°
2026-05-01 11:36 44.90991 10.45282 33366 ft 452 kts 111°
2026-05-01 11:37 44.88148 10.53218 33360 ft 452 kts 111°
2026-05-01 11:37 44.85335 10.61052 33356 ft 454 kts 110°
2026-05-01 11:38 44.82472 10.68993 33349 ft 452 kts 111°
2026-05-01 11:38 44.79645 10.76819 33344 ft 452 kts 111°
2026-05-01 11:39 44.76785 10.84712 33353 ft 453 kts 111°
2026-05-01 11:39 44.73945 10.92521 33343 ft 451 kts 111°
2026-05-01 11:40 44.71079 11.00383 33345 ft 451 kts 110°
2026-05-01 11:40 44.68228 11.08184 33344 ft 451 kts 110°
2026-05-01 11:41 44.65374 11.15976 33348 ft 451 kts 110°
2026-05-01 11:41 44.62509 11.23771 33351 ft 451 kts 110°
2026-05-01 11:42 44.59631 11.31579 33343 ft 452 kts 110°
2026-05-01 11:42 44.56731 11.39418 33339 ft 450 kts 110°
2026-05-01 11:43 44.53870 11.47136 33340 ft 449 kts 110°
2026-05-01 11:43 44.50966 11.54944 33342 ft 451 kts 109°
2026-05-01 11:44 44.46639 11.66540 33338 ft 452 kts 110°
2026-05-01 11:44 44.43727 11.74315 33340 ft 450 kts 110°
2026-05-01 11:45 44.40835 11.82017 33336 ft 451 kts 110°
2026-05-01 11:45 44.37928 11.89737 33344 ft 451 kts 110°
2026-05-01 11:46 44.34999 11.97494 33348 ft 450 kts 110°
2026-05-01 11:46 44.32097 12.05156 33351 ft 449 kts 110°
2026-05-01 11:47 44.29188 12.12821 33349 ft 450 kts 110°
2026-05-01 11:47 44.26264 12.20499 33354 ft 448 kts 109°
2026-05-01 11:48 44.23336 12.28171 33351 ft 449 kts 109°
2026-05-01 11:48 44.20413 12.35801 33352 ft 447 kts 109°
2026-05-01 11:49 44.17490 12.43413 33354 ft 446 kts 109°
2026-05-01 11:49 44.14573 12.50991 33355 ft 445 kts 109°
2026-05-01 11:50 44.11649 12.58573 33347 ft 448 kts 109°
2026-05-01 11:50 44.08713 12.66164 33343 ft 445 kts 110°
2026-05-01 11:51 44.05780 12.73730 33345 ft 446 kts 110°
2026-05-01 11:51 44.02849 12.81258 33330 ft 444 kts 110°
2026-05-01 11:52 43.99915 12.88775 33343 ft 443 kts 110°
2026-05-01 11:52 43.96986 12.96257 33334 ft 442 kts 110°
2026-05-01 11:53 43.94043 13.03750 33309 ft 444 kts 109°
2026-05-01 11:53 43.91100 13.11247 33321 ft 446 kts 110°
2026-05-01 11:54 43.88134 13.18778 33298 ft 443 kts 110°
2026-05-01 11:54 43.85194 13.26201 33306 ft 443 kts 110°
2026-05-01 11:55 43.82207 13.33741 33296 ft 444 kts 110°
2026-05-01 11:55 43.79240 13.41197 33335 ft 445 kts 110°
2026-05-01 11:56 43.76264 13.48667 33330 ft 447 kts 110°
2026-05-01 11:56 43.73276 13.56149 33324 ft 447 kts 111°
2026-05-01 11:57 43.70276 13.63634 33302 ft 447 kts 111°
2026-05-01 11:57 43.67258 13.71157 33312 ft 451 kts 112°
2026-05-01 11:58 43.64224 13.78679 33308 ft 452 kts 112°
2026-05-01 11:59 43.59627 13.90055 33301 ft 452 kts 112°
2026-05-01 11:59 43.56577 13.97584 33301 ft 454 kts 112°
2026-05-01 12:00 43.51940 14.08995 33317 ft 457 kts 113°
2026-05-01 12:01 43.47293 14.20338 33322 ft 458 kts 113°
2026-05-01 12:01 43.44185 14.27923 33310 ft 456 kts 113°
2026-05-01 12:02 43.41072 14.35505 33295 ft 455 kts 113°
2026-05-01 12:02 43.37946 14.43111 33297 ft 461 kts 113°
2026-05-01 12:03 43.34801 14.50720 33296 ft 458 kts 113°
2026-05-01 12:03 43.31633 14.58380 33285 ft 465 kts 114°
2026-05-01 12:04 43.28441 14.66068 33288 ft 466 kts 115°
2026-05-01 12:04 43.25237 14.73751 33290 ft 464 kts 115°
2026-05-01 12:05 43.22033 14.81425 33286 ft 466 kts 115°
2026-05-01 12:05 43.17192 14.92972 33279 ft 470 kts 115°
2026-05-01 12:06 43.13952 15.00690 33273 ft 469 kts 115°
2026-05-01 12:06 43.10720 15.08363 33281 ft 466 kts 115°
2026-05-01 12:07 43.07464 15.16067 33260 ft 466 kts 116°
2026-05-01 12:07 43.04481 15.23832 33246 ft 463 kts 110°
2026-05-01 12:08 43.01923 15.31927 33251 ft 463 kts 108°
2026-05-01 12:08 42.99494 15.40014 33233 ft 462 kts 108°
2026-05-01 12:09 42.97042 15.48140 33232 ft 466 kts 108°
2026-05-01 12:09 42.94558 15.56273 33233 ft 464 kts 108°
2026-05-01 12:10 42.90809 15.68394 33227 ft 465 kts 109°
2026-05-01 12:11 42.87002 15.80603 33223 ft 467 kts 109°
2026-05-01 12:11 42.84461 15.88716 33219 ft 466 kts 110°
2026-05-01 12:12 42.81920 15.96807 33219 ft 468 kts 109°
2026-05-01 12:12 42.79354 16.04947 33218 ft 469 kts 110°
2026-05-01 12:13 42.76799 16.13027 33219 ft 467 kts 110°
2026-05-01 12:13 42.74208 16.21203 33213 ft 470 kts 110°
2026-05-01 12:14 42.71624 16.29330 33209 ft 471 kts 110°
2026-05-01 12:14 42.69033 16.37452 33204 ft 470 kts 110°
2026-05-01 12:15 42.66419 16.45622 33206 ft 471 kts 110°
2026-05-01 12:15 42.63810 16.53744 33202 ft 473 kts 110°
2026-05-01 12:16 42.61180 16.61913 33201 ft 473 kts 110°
2026-05-01 12:16 42.58545 16.70070 33199 ft 475 kts 111°
2026-05-01 12:17 42.55905 16.78225 33198 ft 475 kts 111°
2026-05-01 12:17 42.53237 16.86436 33196 ft 476 kts 111°
2026-05-01 12:18 42.50579 16.94589 33182 ft 476 kts 111°
2026-05-01 12:18 42.47898 17.02792 33184 ft 478 kts 111°
2026-05-01 12:19 42.45224 17.10946 33181 ft 478 kts 111°
2026-05-01 12:19 42.42509 17.19198 33183 ft 478 kts 111°
2026-05-01 12:20 42.39828 17.27324 33183 ft 477 kts 111°
2026-05-01 12:20 42.37110 17.35541 33174 ft 479 kts 111°
2026-05-01 12:21 42.34406 17.43686 33175 ft 477 kts 111°
2026-05-01 12:21 42.31690 17.51849 33173 ft 479 kts 111°
2026-05-01 12:22 42.28963 17.60016 33168 ft 479 kts 112°
2026-05-01 12:22 42.26225 17.68192 33168 ft 480 kts 112°
2026-05-01 12:23 42.23470 17.76392 33165 ft 481 kts 113°
2026-05-01 12:23 42.20720 17.84553 33160 ft 481 kts 113°
2026-05-01 12:24 42.17961 17.92719 33156 ft 480 kts 113°
2026-05-01 12:24 42.15203 18.00855 33154 ft 479 kts 113°
2026-05-01 12:25 42.11052 18.13060 33151 ft 480 kts 113°
2026-05-01 12:26 42.08269 18.21208 33150 ft 480 kts 113°
2026-05-01 12:26 42.04072 18.33457 33150 ft 482 kts 113°
2026-05-01 12:27 41.99885 18.45622 33143 ft 481 kts 113°
2026-05-01 12:28 41.95666 18.57831 33137 ft 484 kts 114°
2026-05-01 12:28 41.92327 18.65703 33135 ft 485 kts 128°
2026-05-01 12:29 41.90027 18.68904 33136 ft 484 kts 140°
2026-05-01 12:29 41.81867 18.76914 33127 ft 483 kts 147°
2026-05-01 12:30 41.73513 18.84469 33120 ft 486 kts 147°
2026-05-01 12:31 41.67947 18.89548 33124 ft 486 kts 147°
2026-05-01 12:31 41.62375 18.94677 33123 ft 487 kts 146°
2026-05-01 12:32 41.56802 18.99828 33112 ft 488 kts 147°
2026-05-01 12:32 41.48428 19.07502 33109 ft 488 kts 148°
2026-05-01 12:33 41.42514 19.11799 33106 ft 485 kts 159°
2026-05-01 12:33 41.36248 19.15047 33099 ft 484 kts 163°
2026-05-01 12:34 41.29906 19.18007 33100 ft 484 kts 163°
2026-05-01 12:34 41.23589 19.20959 33101 ft 484 kts 163°
2026-05-01 12:35 41.17285 19.23949 33095 ft 483 kts 163°
2026-05-01 12:35 41.10926 19.27001 33090 ft 483 kts 163°
2026-05-01 12:36 41.04643 19.30033 33083 ft 483 kts 163°
2026-05-01 12:36 40.98337 19.33077 33084 ft 483 kts 163°
2026-05-01 12:37 40.92023 19.36121 33084 ft 485 kts 164°
2026-05-01 12:37 40.85681 19.39172 32788 ft 482 kts 163°
2026-05-01 12:38 40.82550 19.40679 32322 ft 479 kts 163°
2026-05-01 12:38 40.79453 19.42167 31683 ft 481 kts 163°
2026-05-01 12:38 40.76277 19.43687 30928 ft 486 kts 163°
2026-05-01 12:38 40.73125 19.45193 30110 ft 492 kts 163°
2026-05-01 12:39 40.69906 19.46729 29314 ft 493 kts 163°
2026-05-01 12:39 40.66710 19.48257 28722 ft 489 kts 163°
2026-05-01 12:39 40.63511 19.49786 28014 ft 488 kts 162°
2026-05-01 12:39 40.60348 19.51296 27269 ft 488 kts 162°
2026-05-01 12:40 40.57171 19.52811 26434 ft 489 kts 162°
2026-05-01 12:40 40.53976 19.54332 25612 ft 489 kts 161°
2026-05-01 12:40 40.50788 19.55847 24965 ft 484 kts 161°
2026-05-01 12:40 40.47629 19.57347 24360 ft 478 kts 161°
2026-05-01 12:41 40.44527 19.58818 23702 ft 473 kts 161°
2026-05-01 12:41 40.41447 19.60278 23038 ft 467 kts 161°
2026-05-01 12:41 40.38412 19.61718 22270 ft 464 kts 161°
2026-05-01 12:41 40.35438 19.63130 21497 ft 460 kts 165°
2026-05-01 12:42 40.32323 19.64018 20924 ft 451 kts 172°
2026-05-01 12:42 40.29252 19.64530 20118 ft 449 kts 176°
2026-05-01 12:42 40.26160 19.64860 19396 ft 445 kts 178°
2026-05-01 12:42 40.23080 19.65116 18773 ft 438 kts 179°
2026-05-01 12:43 40.20055 19.65343 18304 ft 429 kts 179°
2026-05-01 12:43 40.17117 19.65564 17761 ft 423 kts 179°
2026-05-01 12:43 40.14218 19.65798 17165 ft 418 kts 179°
2026-05-01 12:43 40.11297 19.66052 16526 ft 418 kts 178°
2026-05-01 12:44 40.08434 19.66319 15821 ft 416 kts 178°
2026-05-01 12:44 40.05557 19.66601 15153 ft 412 kts 178°
2026-05-01 12:44 39.99910 19.67177 13873 ft 404 kts 177°
2026-05-01 12:45 39.94383 19.67749 12665 ft 395 kts 177°
2026-05-01 12:45 39.91653 19.68031 12101 ft 390 kts 177°
2026-05-01 12:45 39.88991 19.68306 11873 ft 375 kts 177°
2026-05-01 12:46 39.86448 19.68569 11619 ft 363 kts 177°
2026-05-01 12:46 39.83970 19.68825 11476 ft 348 kts 176°
2026-05-01 12:46 39.81586 19.69071 11354 ft 334 kts 177°
2026-05-01 12:46 39.79318 19.69303 11240 ft 321 kts 177°
2026-05-01 12:47 39.77143 19.69523 11141 ft 308 kts 177°
2026-05-01 12:47 39.75042 19.69754 11054 ft 296 kts 176°
2026-05-01 12:47 39.73033 19.69966 10948 ft 285 kts 177°
2026-05-01 12:47 39.71084 19.70159 10688 ft 280 kts 177°
2026-05-01 12:48 39.69146 19.70347 10399 ft 277 kts 177°
2026-05-01 12:48 39.67223 19.70536 10035 ft 276 kts 177°
2026-05-01 12:48 39.65323 19.70726 9644 ft 274 kts 177°
2026-05-01 12:48 39.63446 19.70914 9215 ft 273 kts 177°
2026-05-01 12:49 39.61548 19.71104 8766 ft 273 kts 176°
2026-05-01 12:49 39.59663 19.71292 8364 ft 271 kts 176°
2026-05-01 12:49 39.57790 19.71482 7981 ft 269 kts 175°
2026-05-01 12:49 39.55928 19.71673 7554 ft 269 kts 175°
2026-05-01 12:50 39.54071 19.71865 7140 ft 267 kts 175°
2026-05-01 12:50 39.52212 19.72055 6791 ft 264 kts 174°
2026-05-01 12:50 39.50386 19.72236 6430 ft 262 kts 174°
2026-05-01 12:50 39.48597 19.72415 6027 ft 260 kts 174°
2026-05-01 12:51 39.46781 19.72593 5600 ft 259 kts 174°
2026-05-01 12:51 39.45008 19.72802 5210 ft 257 kts 172°
2026-05-01 12:51 39.41517 19.73665 4363 ft 253 kts 152°
2026-05-01 12:52 39.40217 19.75134 3965 ft 246 kts 118°
2026-05-01 12:52 39.39810 19.79324 3351 ft 239 kts 84°
2026-05-01 12:52 39.39923 19.81471 3060 ft 238 kts 88°
2026-05-01 12:53 39.39903 19.85532 3012 ft 218 kts 89°
2026-05-01 12:53 39.39941 19.87503 3011 ft 219 kts 83°
2026-05-01 12:53 39.40245 19.89388 2960 ft 212 kts 73°
2026-05-01 12:54 39.40723 19.91200 2910 ft 212 kts 71°
2026-05-01 12:54 39.41545 19.94617 2921 ft 185 kts 73°
2026-05-01 12:54 39.42018 19.96174 2757 ft 189 kts 59°
2026-05-01 12:55 39.44362 19.97078 2285 ft 191 kts 345°
2026-05-01 12:55 39.45612 19.96517 2061 ft 188 kts 345°
2026-05-01 12:55 39.46861 19.96054 1838 ft 186 kts 347°
2026-05-01 12:56 39.48090 19.95618 1699 ft 178 kts 347°
2026-05-01 12:56 39.49256 19.95179 1715 ft 174 kts 346°
2026-05-01 12:56 39.50400 19.94744 1712 ft 162 kts 347°
2026-05-01 12:56 39.51446 19.94350 1615 ft 155 kts 347°
2026-05-01 12:57 39.52465 19.93973 1431 ft 148 kts 346°
2026-05-01 12:57 39.54445 19.93231 1014 ft 148 kts 345°
2026-05-01 12:57 39.55442 19.92858 813 ft 148 kts 345°
2026-05-01 12:58 39.56420 19.92471 637 ft 145 kts 341°
2026-05-01 12:58 39.57352 19.92000 446 ft 145 kts 341°
2026-05-01 12:58 39.58337 19.91683 229 ft 144 kts 349°
2026-05-01 12:59 39.60196 19.91211 6 ft 94 kts 349°
2026-05-01 12:59 39.60640 19.91099 6 ft 47 kts 348°
2026-05-01 12:59 39.60986 19.91010 9 ft 6 kts 349°
2026-05-01 13:00 39.61052 19.91069 9 ft 5 kts 57°
2026-05-01 13:00 39.61053 19.91114 9 ft 4 kts 125°
2026-05-01 13:01 39.60965 19.91146 9 ft 9 kts 169°
2026-05-01 13:01 39.60897 19.91163 9 ft 9 kts 169°
2026-05-01 13:01 39.60712 19.91209 6 ft 15 kts 168°
2026-05-01 13:02 39.60637 19.91232 5 ft 7 kts 155°
2026-05-01 13:07 39.60629 19.91365 6 ft 0 kts 79°